カタログに戻る

LIZZIESAT

運用中科学SSO
NORAD 59132·PAYLOAD·🇺🇸 United States

打ち上げ Mar 4, 2024 から Vandenberg Space Force Base

Loading…

次のパス (今後24時間)

TLE

最新Source: Space-Track

元期: Sep 14, 2026, 15:11 UTC

1 59132U 24043AL  26257.63317607  .00003378  00000-0  12632-3 0  9996
2 59132  97.5769  34.7898 0009175 293.7241  66.3035 15.28024894140599

AllMySatでLIZZIESATをリアルタイム追跡

Download on the App Store